Weather in Yaoundé

Cameroon     3˚48′53″N   11˚31′52″E
temp.,
°C
wind,
m/s
gust,
m/s
humid.,
%
clouds,
%
prec.,
mm/h
press.,
hPa
HPBL,
m
27 november, fri
fri2701:00+21˚w269293 0.0 1011407
04:00+22˚wnw1588100 0.0 1011474
07:00+21˚wsw1392100 0.2 1012210
10:00+27˚w117252 2.0 1012569
13:00+32˚n134229 3.1 10081813
16:00+28˚wnw135889 0.0 1007589
19:00+23˚w278376 0.0 1010273
22:00+21˚w379451 0.0 1012441
28 november, sat
sat2801:00+22˚wsw278976 0.0 1012541
04:00+21˚wnw1593100 0.1 1012382
07:00+21˚wsw119692 0.4 1014104
10:00+27˚nw236415 0.2 1013904
13:00+31˚n244114 0.2 10102208
16:00+30˚nnw134569 0.0 10072053
19:00+23˚w398884 0.0 1010396
22:00+22˚w388968 0.0 1012511
29 november, sun
sun2901:00+21˚w268684 0.0 1012563
04:00+21˚wsw2594100 0.1 1012304
07:00+20˚wsw1396100 0.1 1013189
10:00+27˚wnw1262100 0.0 1013836
13:00+31˚nne2432100 0.0 10092229
16:00+30˚nnw2238100 0.0 10071489
19:00+23˚w277688 0.0 1009227
22:00+21˚w2796100 0.0 1012339
30 november, mon
mon3001:00+21˚wsw2589100 0.0 1012446
04:00+22˚w1489100 0.1 1012341
07:00+21˚wsw1290100 0.1 1013145
10:00+29˚wnw115264 0.0 10141187
13:00+32˚ne133759 0.0 10102338
16:00+29˚nw134884 0.1 10081107
19:00+23˚w267466 0.1 1010219
22:00+21˚wsw289641 0.0 1012337
1 december, tue
tue101:00+22˚w268963 0.0 1013500
04:00+20˚w159581 0.0 1012303
07:00+20˚wsw129562 0.0 1013142
10:00+28˚w115762 0.0 10131036
13:00+33˚ne143480 0.0 10092391
16:00+26˚wsw267290 0.9 1007290
19:00+22˚w289159 1.1 1009287
22:00+21˚wsw389515 0.0 1012405